| time (UTC) | temp C | wind direction | speed KPH | gust KPH | rain 1hr cm | rain 24hr cm | rain mn cm | humidity % | barometer mb |
| 20260903224525 | 25 | 204 | 1.6 | 12.9 | 0.48 | 1.09 | 1.09 | 87 | 1015.7 |
| 20260903224003 | 26 | 275 | 8.0 | 11.3 | 0.48 | 1.09 | 1.09 | 84 | 1015.2 |
| 20260903223503 | 26 | 283 | 3.2 | 11.3 | 0.28 | 0.89 | 0.89 | 82 | 1015.6 |
| 20260903223012 | 27 | 263 | 1.6 | 11.3 | 0.10 | 0.71 | 0.71 | 80 | 1015.1 |
| 20260903222506 | 27 | 234 | 6.4 | 11.3 | 0.00 | 0.61 | 0.61 | 77 | 1014.9 |
| 20260903222008 | 27 | 257 | 4.8 | 8.0 | 0.00 | 0.61 | 0.61 | 77 | 1015.0 |
| 20260903221515 | 27 | 221 | 3.2 | 6.4 | 0.00 | 0.61 | 0.61 | 77 | 1015.0 |
| 20260903221003 | 27 | 309 | 0.0 | 11.3 | 0.00 | 0.61 | 0.61 | 76 | 1015.0 |
| 20260903220503 | 27 | 252 | 3.2 | 11.3 | 0.00 | 0.61 | 0.61 | 76 | 1014.7 |
| 20260903220023 | 28 | 238 | 3.2 | 9.7 | 0.00 | 0.61 | 0.61 | 75 | 1014.7 |
| 20260903215504 | 28 | 217 | 3.2 | 9.7 | 0.00 | 0.61 | 0.61 | 74 | 1014.7 |
| 20260903215004 | 28 | 230 | 3.2 | 11.3 | 0.00 | 0.61 | 0.61 | 73 | 1014.6 |
| 20260903214516 | 29 | 215 | 3.2 | 11.3 | 0.00 | 0.61 | 0.61 | 72 | 1014.9 |
| 20260903214007 | 30 | 229 | 3.2 | 9.7 | 0.00 | 0.61 | 0.61 | 71 | 1014.7 |
| 20260903213506 | 30 | 182 | 4.8 | 9.7 | 0.00 | 0.61 | 0.61 | 70 | 1014.7 |
| 20260903213022 | 30 | 261 | 0.0 | 11.3 | 0.00 | 0.61 | 0.61 | 68 | 1014.7 |
| 20260903212505 | 31 | 188 | 3.2 | 11.3 | 0.00 | 0.61 | 0.61 | 66 | 1014.4 |
| 20260903212007 | 32 | 242 | 4.8 | 16.1 | 0.00 | 0.61 | 0.61 | 65 | 1014.1 |
| 20260903211514 | 32 | 140 | 3.2 | 16.1 | 0.00 | 0.61 | 0.61 | 64 | 1014.3 |
| 20260903211007 | 32 | 111 | 6.4 | 19.3 | 0.00 | 0.61 | 0.61 | 63 | 1013.9 |
| 20260903210507 | 32 | 95 | 11.3 | 19.3 | 0.00 | 0.61 | 0.61 | 62 | 1013.8 |
| 20260903210025 | 33 | 102 | 9.7 | 20.9 | 0.00 | 0.61 | 0.61 | 62 | 1013.7 |
| 20260903205506 | 33 | 127 | 6.4 | 24.1 | 0.00 | 0.61 | 0.61 | 62 | 1013.8 |
| 20260903205009 | 34 | 73 | 11.3 | 24.1 | 0.00 | 0.61 | 0.61 | 60 | 1013.7 |
| 20260903204517 | 34 | 76 | 11.3 | 20.9 | 0.00 | 0.61 | 0.61 | 59 | 1013.7 |
| 20260903204007 | 34 | 80 | 8.0 | 24.1 | 0.00 | 0.61 | 0.61 | 59 | 1013.6 |
| 20260903203510 | 34 | 88 | 11.3 | 24.1 | 0.00 | 0.61 | 0.61 | 60 | 1013.7 |
| 20260903203019 | 34 | 89 | 11.3 | 20.9 | 0.00 | 0.61 | 0.61 | 59 | 1013.7 |
| 20260903202508 | 34 | 107 | 9.7 | 20.9 | 0.00 | 0.61 | 0.61 | 60 | 1013.5 |
| 20260903202012 | 34 | 101 | 9.7 | 17.7 | 0.00 | 0.61 | 0.61 | 60 | 1013.6 |
| 20260903201523 | 34 | 58 | 6.4 | 22.5 | 0.00 | 0.61 | 0.61 | 61 | 1013.6 |
| 20260903201007 | 34 | 97 | 9.7 | 25.7 | 0.00 | 0.61 | 0.61 | 60 | 1013.7 |
| 20260903200510 | 34 | 94 | 9.7 | 25.7 | 0.00 | 0.61 | 0.61 | 61 | 1013.9 |
| 20260903200016 | 33 | 108 | 6.4 | 20.9 | 0.00 | 0.61 | 0.61 | 61 | 1014.0 |
| 20260903195507 | 33 | 95 | 6.4 | 20.9 | 0.00 | 0.61 | 0.61 | 61 | 1014.0 |
| 20260903195009 | 33 | 73 | 9.7 | 24.1 | 0.00 | 0.61 | 0.61 | 60 | 1014.1 |
| 20260903194524 | 33 | 92 | 12.9 | 24.1 | 0.00 | 0.61 | 0.61 | 59 | 1013.9 |
| 20260903194014 | 34 | 108 | 11.3 | 22.5 | 0.00 | 0.61 | 0.61 | 60 | 1014.1 |
| 20260903193512 | 34 | 91 | 9.7 | 25.7 | 0.00 | 0.61 | 0.61 | 58 | 1014.2 |
| 20260903193020 | 34 | 61 | 4.8 | 27.4 | 0.00 | 0.61 | 0.61 | 58 | 1014.6 |
| 20260903192511 | 34 | 119 | 11.3 | 27.4 | 0.00 | 0.61 | 0.61 | 58 | 1014.7 |
| 20260903192009 | 34 | 147 | 8.0 | 19.3 | 0.00 | 0.61 | 0.61 | 59 | 1014.7 |
| 20260903191524 | 34 | 98 | 9.7 | 27.4 | 0.00 | 0.61 | 0.61 | 60 | 1014.7 |
| 20260903191010 | 34 | 97 | 12.9 | 27.4 | 0.00 | 0.61 | 0.61 | 61 | 1014.7 |
| 20260903190510 | 34 | 55 | 12.9 | 24.1 | 0.00 | 0.61 | 0.61 | 60 | 1014.9 |
| 20260903190024 | 34 | 95 | 4.8 | 20.9 | 0.00 | 0.61 | 0.61 | 65 | 1015.1 |
| 20260903185513 | 33 | 78 | 9.7 | 22.5 | 0.00 | 0.61 | 0.61 | 62 | 1015.2 |
| 20260903185012 | 33 | 15 | 6.4 | 22.5 | 0.00 | 0.61 | 0.61 | 63 | 1015.3 |
| 20260903184523 | 33 | 57 | 12.9 | 19.3 | 0.00 | 0.61 | 0.61 | 64 | 1015.5 |
| 20260903184013 | 33 | 67 | 8.0 | 24.1 | 0.00 | 0.61 | 0.61 | 63 | 1015.5 |
| 20260903183509 | 33 | 111 | 9.7 | 24.1 | 0.00 | 0.61 | 0.61 | 64 | 1015.6 |
| 20260903183023 | 33 | 96 | 8.0 | 19.3 | 0.00 | 0.61 | 0.61 | 65 | 1015.7 |
| 20260903182510 | 33 | 75 | 11.3 | 22.5 | 0.00 | 0.61 | 0.61 | 65 | 1015.8 |
| 20260903182013 | 33 | 144 | 9.7 | 22.5 | 0.00 | 0.61 | 0.61 | 66 | 1015.8 |
| 20260903181526 | 33 | 111 | 8.0 | 22.5 | 0.00 | 0.61 | 0.61 | 67 | 1015.9 |
| 20260903181011 | 32 | 140 | 11.3 | 22.5 | 0.00 | 0.61 | 0.61 | 65 | 1015.9 |
| 20260903180513 | 32 | 38 | 8.0 | 17.7 | 0.00 | 0.61 | 0.61 | 65 | 1015.9 |
| 20260903180026 | 32 | 92 | 6.4 | 16.1 | 0.00 | 0.61 | 0.61 | 69 | 1015.9 |
| 20260903175514 | 32 | 59 | 6.4 | 19.3 | 0.00 | 0.61 | 0.61 | 68 | 1016.0 |
| 20260903175014 | 32 | 95 | 4.8 | 22.5 | 0.00 | 0.61 | 0.61 | 70 | 1016.3 |
| 20260903174529 | 32 | 148 | 11.3 | 22.5 | 0.00 | 0.61 | 0.61 | 69 | 1016.3 |
| 20260903174015 | 32 | 54 | 11.3 | 20.9 | 0.00 | 0.61 | 0.61 | 71 | 1016.3 |
| 20260903173510 | 31 | 40 | 6.4 | 16.1 | 0.00 | 0.61 | 0.61 | 72 | 1016.4 |
| 20260903173028 | 31 | 49 | 4.8 | 16.1 | 0.00 | 0.61 | 0.61 | 73 | 1016.4 |
| 20260903172514 | 31 | 22 | 4.8 | 17.7 | 0.00 | 0.61 | 0.61 | 73 | 1016.5 |
| 20260903172012 | 31 | 113 | 9.7 | 17.7 | 0.00 | 0.61 | 0.61 | 75 | 1016.5 |
| 20260903171526 | 31 | 5 | 3.2 | 14.5 | 0.00 | 0.61 | 0.61 | 76 | 1016.6 |
| 20260903171011 | 31 | 326 | 4.8 | 14.5 | 0.00 | 0.61 | 0.61 | 77 | 1016.7 |
| 20260903170511 | 30 | 9 | 4.8 | 16.1 | 0.00 | 0.61 | 0.61 | 76 | 1016.7 |
| 20260903170032 | 30 | 15 | 4.8 | 16.1 | 0.00 | 0.61 | 0.61 | 74 | 1016.8 |
| 20260903165517 | 30 | 41 | 4.8 | 14.5 | 0.00 | 0.61 | 0.61 | 76 | 1016.9 |
| 20260903165012 | 30 | 23 | 6.4 | 14.5 | 0.00 | 0.61 | 0.61 | 76 | 1017.0 |
| 20260903164530 | 30 | 36 | 8.0 | 16.1 | 0.00 | 0.61 | 0.61 | 78 | 1017.0 |
| 20260903164003 | 30 | 46 | 8.0 | 16.1 | 0.00 | 0.61 | 0.61 | 76 | 1017.0 |
| 20260903163502 | 30 | 13 | 6.4 | 12.9 | 0.00 | 0.61 | 0.61 | 77 | 1017.0 |
| 20260903163004 | 29 | 53 | 4.8 | 11.3 | 0.00 | 0.61 | 0.61 | 78 | 1017.0 |
| 20260903162501 | 29 | 325 | 3.2 | 14.5 | 0.00 | 0.61 | 0.61 | 81 | 1017.1 |
| 20260903162002 | 28 | 26 | 4.8 | 14.5 | 0.00 | 0.61 | 0.61 | 80 | 1017.1 |
| 20260903161502 | 28 | 13 | 6.4 | 14.5 | 0.00 | 0.61 | 0.61 | 79 | 1017.1 |
| 20260903161001 | 28 | 57 | 6.4 | 12.9 | 0.00 | 0.61 | 0.61 | 80 | 1017.2 |
| 20260903160502 | 27 | 23 | 4.8 | 14.5 | 0.00 | 0.61 | 0.61 | 82 | 1017.2 |
| 20260903160009 | 27 | 348 | 3.2 | 14.5 | 0.00 | 0.61 | 0.61 | 79 | 1017.3 |
| 20260903155503 | 27 | 15 | 4.8 | 14.5 | 0.00 | 0.61 | 0.61 | 82 | 1017.4 |
| 20260903155002 | 27 | 26 | 6.4 | 12.9 | 0.00 | 0.61 | 0.61 | 80 | 1017.3 |
| 20260903154505 | 27 | 350 | 4.8 | 14.5 | 0.00 | 0.61 | 0.61 | 82 | 1017.3 |
| 20260903154005 | 27 | 5 | 3.2 | 14.5 | 0.00 | 0.61 | 0.61 | 81 | 1017.4 |
| 20260903153501 | 27 | 31 | 3.2 | 14.5 | 0.00 | 0.61 | 0.61 | 81 | 1017.4 |
| 20260903153003 | 27 | 348 | 6.4 | 14.5 | 0.00 | 0.61 | 0.61 | 83 | 1017.4 |
| 20260903152504 | 27 | 334 | 4.8 | 17.7 | 0.00 | 0.61 | 0.61 | 83 | 1017.5 |
| 20260903152005 | 26 | 5 | 4.8 | 17.7 | 0.00 | 0.61 | 0.61 | 85 | 1017.5 |
| 20260903151502 | 26 | 9 | 6.4 | 14.5 | 0.00 | 0.61 | 0.61 | 85 | 1017.5 |
| 20260903151002 | 25 | 327 | 1.6 | 12.9 | 0.00 | 0.61 | 0.61 | 91 | 1017.4 |
| 20260903150503 | 25 | 13 | 4.8 | 12.9 | 0.00 | 0.61 | 0.61 | 91 | 1017.4 |
| 20260903150009 | 24 | 326 | 1.6 | 12.9 | 0.00 | 0.61 | 0.61 | 91 | 1017.4 |
| 20260903145503 | 24 | 360 | 4.8 | 14.5 | 0.00 | 0.61 | 0.61 | 90 | 1017.5 |
| 20260903145007 | 23 | 11 | 6.4 | 14.5 | 0.00 | 0.61 | 0.61 | 90 | 1017.5 |
| 20260903144518 | 23 | 53 | 4.8 | 11.3 | 0.00 | 0.61 | 0.61 | 92 | 1017.4 |
| 20260903144001 | 23 | 84 | 3.2 | 9.7 | 0.00 | 0.61 | 0.61 | 94 | 1017.5 |
| 20260903143503 | 23 | 355 | 3.2 | 9.7 | 0.00 | 0.61 | 0.61 | 94 | 1017.5 |
| 20260903143016 | 23 | 47 | 3.2 | 8.0 | 0.00 | 0.61 | 0.61 | 95 | 1017.4 |
| 20260903142505 | 23 | 22 | 3.2 | 6.4 | 0.00 | 0.61 | 0.61 | 95 | 1017.4 |
| 20260903142002 | 22 | 342 | 1.6 | 6.4 | 0.00 | 0.61 | 0.61 | 96 | 1017.4 |
| 20260903141504 | 22 | 11 | 3.2 | 6.4 | 0.00 | 0.61 | 0.61 | 96 | 1017.4 |
| 20260903141006 | 22 | 28 | 3.2 | 6.4 | 0.00 | 0.61 | 0.61 | 96 | 1017.3 |
| 20260903140507 | 22 | 355 | 0.0 | 6.4 | 0.00 | 0.61 | 0.61 | 96 | 1017.3 |
| 20260903140006 | 22 | 338 | 1.6 | 6.4 | 0.00 | 0.61 | 0.61 | 96 | 1017.3 |
| 20260903135502 | 22 | 337 | 1.6 | 4.8 | 0.03 | 0.61 | 0.61 | 95 | 1017.2 |
| 20260903135002 | 21 | 16 | 0.0 | 4.8 | 0.05 | 0.61 | 0.61 | 95 | 1017.1 |
| 20260903134507 | 21 | 346 | 0.0 | 4.8 | 0.20 | 0.61 | 0.61 | 96 | 1017.3 |
| 20260903134005 | 21 | 294 | 0.0 | 9.7 | 0.46 | 0.61 | 0.61 | 95 | 1017.2 |
| 20260903133503 | 21 | 284 | 3.2 | 11.3 | 0.56 | 0.61 | 0.61 | 95 | 1017.3 |
| 20260903133004 | 21 | 348 | 3.2 | 11.3 | 0.61 | 0.61 | 0.61 | 95 | 1017.4 |
| 20260903132503 | 21 | 360 | 4.8 | 9.7 | 0.61 | 0.61 | 0.61 | 95 | 1017.6 |
| 20260903132004 | 21 | 355 | 0.0 | 9.7 | 0.61 | 0.61 | 0.61 | 94 | 1017.7 |
| 20260903131510 | 21 | 26 | 3.2 | 9.7 | 0.61 | 0.61 | 0.61 | 94 | 1017.9 |
| 20260903131004 | 21 | 344 | 1.6 | 6.4 | 0.61 | 0.61 | 0.61 | 94 | 1018.0 |
| 20260903130503 | 21 | 31 | 0.0 | 12.9 | 0.61 | 0.61 | 0.61 | 93 | 1018.2 |
| 20260903130016 | 21 | 324 | 4.8 | 12.9 | 0.61 | 0.61 | 0.61 | 93 | 1017.7 |
| 20260903125510 | 21 | 348 | 4.8 | 16.1 | 0.58 | 0.58 | 0.58 | 92 | 1017.8 |
| 20260903125003 | 21 | 317 | 8.0 | 16.1 | 0.56 | 0.56 | 0.56 | 90 | 1017.6 |
| 20260903124507 | 21 | 304 | 4.8 | 11.3 | 0.41 | 0.41 | 0.41 | 90 | 1017.9 |
| 20260903124002 | 22 | 5 | 1.6 | 4.8 | 0.15 | 0.15 | 0.15 | 89 | 1018.3 |
| 20260903123504 | 22 | 309 | 1.6 | 6.4 | 0.05 | 0.05 | 0.05 | 87 | 1018.2 |
| 20260903123010 | 22 | 289 | 0.0 | 9.7 | 0.00 | 0.00 | 0.00 | 87 | 1018.3 |
| 20260903122504 | 22 | 315 | 4.8 | 9.7 | 0.00 | 0.00 | 0.00 | 86 | 1018.1 |
| 20260903122003 | 22 | 264 | 3.2 | 9.7 | 0.00 | 0.00 | 0.00 | 87 | 1018.0 |
| 20260903121505 | 22 | 294 | 3.2 | 11.3 | 0.00 | 0.00 | 0.00 | 86 | 1018.0 |
| 20260903121002 | 22 | 289 | 3.2 | 11.3 | 0.00 | 0.00 | 0.00 | 86 | 1018.0 |
| 20260903120509 | 22 | 248 | 4.8 | 11.3 | 0.00 | 0.00 | 0.00 | 86 | 1017.9 |
| 20260903120013 | 22 | 242 | 3.2 | 11.3 | 0.00 | 0.00 | 0.00 | 86 | 1017.9 |
| 20260903115503 | 22 | 229 | 3.2 | 14.5 | 0.00 | 0.00 | 0.00 | 86 | 1018.0 |
| 20260903115003 | 22 | 209 | 3.2 | 14.5 | 0.00 | 0.00 | 0.00 | 86 | 1017.8 |
| 20260903114515 | 22 | 236 | 6.4 | 12.9 | 0.00 | 0.00 | 0.00 | 86 | 1017.6 |
| 20260903114013 | 22 | 237 | 4.8 | 14.5 | 0.00 | 0.00 | 0.00 | 87 | 1017.6 |
| 20260903113503 | 22 | 242 | 8.0 | 14.5 | 0.00 | 0.00 | 0.00 | 87 | 1017.7 |
| 20260903113012 | 22 | 234 | 4.8 | 14.5 | 0.00 | 0.00 | 0.00 | 87 | 1017.8 |
| 20260903112514 | 22 | 240 | 9.7 | 14.5 | 0.00 | 0.00 | 0.00 | 87 | 1017.8 |
| 20260903112003 | 22 | 224 | 6.4 | 11.3 | 0.00 | 0.00 | 0.00 | 88 | 1017.5 |
| 20260903111508 | 22 | 272 | 3.2 | 16.1 | 0.00 | 0.00 | 0.00 | 89 | 1017.3 |
| 20260903111008 | 22 | 255 | 4.8 | 20.9 | 0.00 | 0.00 | 0.00 | 90 | 1017.3 |
| 20260903110502 | 22 | 234 | 9.7 | 20.9 | 0.00 | 0.00 | 0.00 | 92 | 1017.3 |
| 20260903110007 | 22 | 196 | 4.8 | 12.9 | 0.00 | 0.00 | 0.00 | 93 | 1017.1 |
| 20260903105503 | 22 | 198 | 3.2 | 12.9 | 0.00 | 0.00 | 0.00 | 93 | 1017.2 |
| 20260903105007 | 22 | 234 | 6.4 | 11.3 | 0.00 | 0.00 | 0.00 | 93 | 1017.0 |
| 20260903104514 | 22 | 360 | 1.6 | 11.3 | 0.00 | 0.00 | 0.00 | 93 | 1016.6 |
| 20260903104005 | 22 | 56 | 3.2 | 11.3 | 0.00 | 0.00 | 0.00 | 93 | 1016.6 |
| 20260903103506 | 22 | 85 | 1.6 | 6.4 | 0.00 | 0.00 | 0.00 | 93 | 1016.6 |
| 20260903103026 | 22 | 26 | 1.6 | 6.4 | 0.00 | 0.00 | 0.00 | 93 | 1016.6 |
| 20260903102512 | 22 | 26 | 1.6 | 6.4 | 0.00 | 0.00 | 0.00 | 93 | 1016.6 |
| 20260903102005 | 22 | 51 | 0.0 | 4.8 | 0.00 | 0.00 | 0.00 | 93 | 1016.7 |
| 20260903101520 | 22 | 50 | 1.6 | 4.8 | 0.00 | 0.00 | 0.00 | 93 | 1016.7 |
| 20260903101011 | 22 | 56 | 0.0 | 3.2 | 0.00 | 0.00 | 0.00 | 93 | 1016.7 |
| 20260903100503 | 22 | 46 | 0.0 | 3.2 | 0.00 | 0.00 | 0.00 | 93 | 1016.8 |
| 20260903100007 | 22 | 46 | 0.0 | 4.8 | 0.00 | 0.00 | 0.00 | 93 | 1016.8 |
| 20260903095503 | 22 | 46 | 0.0 | 4.8 | 0.00 | 0.00 | 0.00 | 93 | 1016.7 |
| 20260903095002 | 22 | 78 | 0.0 | 3.2 | 0.00 | 0.00 | 0.00 | 93 | 1016.6 |
| 20260903094511 | 22 | 78 | 0.0 | 3.2 | 0.00 | 0.00 | 0.00 | 93 | 1016.5 |
| 20260903094006 | 22 | 78 | 0.0 | 3.2 | 0.00 | 0.00 | 0.00 | 92 | 1016.4 |
| 20260903093506 | 22 | 78 | 0.0 | 3.2 | 0.00 | 0.00 | 0.00 | 93 | 1016.4 |
| 20260903093029 | 22 | 78 | 0.0 | 3.2 | 0.00 | 0.00 | 0.00 | 93 | 1016.4 |
| 20260903092503 | 22 | 78 | 0.0 | 3.2 | 0.00 | 0.00 | 0.00 | 93 | 1016.4 |
| 20260903092013 | 22 | 78 | 0.0 | 3.2 | 0.00 | 0.00 | 0.00 | 93 | 1016.5 |
| 20260903091527 | 22 | 78 | 0.0 | 3.2 | 0.00 | 0.00 | 0.00 | 93 | 1016.5 |
| 20260903091003 | 22 | 78 | 0.0 | 4.8 | 0.00 | 0.00 | 0.00 | 92 | 1016.5 |
| 20260903090506 | 22 | 78 | 0.0 | 4.8 | 0.00 | 0.00 | 0.00 | 92 | 1016.3 |
| 20260903090029 | 22 | 51 | 0.0 | 3.2 | 0.00 | 0.00 | 0.00 | 92 | 1016.3 |
| 20260903085520 | 22 | 51 | 0.0 | 1.6 | 0.00 | 0.00 | 0.00 | 92 | 1016.3 |
| 20260903085003 | 22 | 51 | 0.0 | 3.2 | 0.00 | 0.00 | 0.00 | 92 | 1016.2 |
| 20260903084509 | 22 | 51 | 0.0 | 3.2 | 0.00 | 0.00 | 0.00 | 92 | 1016.2 |
| 20260903084006 | 22 | 51 | 0.0 | 3.2 | 0.00 | 0.00 | 0.00 | 92 | 1016.3 |
| 20260903083504 | 22 | 51 | 0.0 | 4.8 | 0.00 | 0.00 | 0.00 | 91 | 1016.3 |
| 20260903083013 | 23 | 51 | 0.0 | 4.8 | 0.00 | 0.00 | 0.00 | 91 | 1016.3 |
| 20260903081534 | 23 | 51 | 0.0 | 3.2 | 0.00 | 0.00 | 0.00 | 90 | 1016.5 |
| 20260903081009 | 23 | 51 | 0.0 | 3.2 | 0.00 | 0.00 | 0.00 | 90 | 1016.5 |
| 20260903080514 | 23 | 51 | 0.0 | 3.2 | 0.00 | 0.00 | 0.00 | 90 | 1016.7 |
| 20260903080029 | 23 | 51 | 0.0 | 3.2 | 0.00 | 0.00 | 0.00 | 89 | 1016.6 |
| 20260903075511 | 23 | 188 | 0.0 | 3.2 | 0.00 | 0.00 | 0.00 | 89 | 1016.7 |
| 20260903075010 | 23 | 188 | 0.0 | 3.2 | 0.00 | 0.00 | 0.00 | 89 | 1016.7 |
| 20260903074534 | 23 | 188 | 0.0 | 3.2 | 0.00 | 0.00 | 0.00 | 88 | 1016.6 |
| 20260903074006 | 23 | 188 | 0.0 | 1.6 | 0.00 | 0.00 | 0.00 | 88 | 1016.7 |
| 20260903073510 | 23 | 188 | 0.0 | 1.6 | 0.00 | 0.00 | 0.00 | 88 | 1016.6 |
| 20260903073016 | 23 | 188 | 0.0 | 1.6 | 0.00 | 0.00 | 0.00 | 88 | 1016.5 |
| 20260903072506 | 24 | 188 | 0.0 | 1.6 | 0.00 | 0.00 | 0.00 | 87 | 1016.4 |
| 20260903072011 | 24 | 188 | 0.0 | 4.8 | 0.00 | 0.00 | 0.00 | 87 | 1016.4 |
| 20260903071519 | 24 | 188 | 0.0 | 4.8 | 0.00 | 0.00 | 0.00 | 87 | 1016.5 |
| 20260903071007 | 24 | 117 | 0.0 | 6.4 | 0.00 | 0.00 | 0.00 | 87 | 1016.5 |
| 20260903070513 | 24 | 185 | 0.0 | 6.4 | 0.00 | 0.00 | 0.00 | 87 | 1016.5 |
| 20260903070021 | 24 | 166 | 0.0 | 8.0 | 0.00 | 0.00 | 0.00 | 87 | 1016.5 |
| 20260903065515 | 24 | 166 | 3.2 | 8.0 | 0.00 | 0.00 | 0.00 | 87 | 1016.9 |
| 20260903065018 | 24 | 167 | 1.6 | 8.0 | 0.00 | 0.00 | 0.00 | 87 | 1016.9 |
| 20260903064515 | 24 | 71 | 0.0 | 1.6 | 0.00 | 0.00 | 0.00 | 87 | 1016.6 |
| 20260903064010 | 24 | 71 | 0.0 | 3.2 | 0.00 | 0.00 | 0.00 | 86 | 1016.5 |
| 20260903063518 | 24 | 71 | 0.0 | 3.2 | 0.00 | 0.00 | 0.00 | 86 | 1016.4 |
| 20260903063031 | 24 | 71 | 0.0 | 4.8 | 0.00 | 0.00 | 0.00 | 86 | 1016.4 |
| 20260903062509 | 24 | 71 | 0.0 | 4.8 | 0.00 | 0.00 | 0.00 | 85 | 1016.3 |
| 20260903062014 | 24 | 71 | 1.6 | 4.8 | 0.00 | 0.00 | 0.00 | 85 | 1016.2 |
| 20260903061531 | 25 | 78 | 1.6 | 4.8 | 0.00 | 0.00 | 0.00 | 85 | 1016.3 |
| 20260903061009 | 25 | 65 | 1.6 | 4.8 | 0.00 | 0.00 | 0.00 | 84 | 1016.2 |
| 20260903060507 | 25 | 65 | 1.6 | 9.7 | 0.00 | 0.00 | 0.00 | 84 | 1016.2 |
| 20260903060021 | 25 | 71 | 1.6 | 9.7 | 0.00 | 0.00 | 0.00 | 84 | 1016.1 |
| 20260903055513 | 25 | 75 | 1.6 | 6.4 | 0.00 | 0.00 | 0.00 | 84 | 1016.1 |
| 20260903055008 | 25 | 55 | 3.2 | 9.7 | 0.00 | 0.00 | 0.00 | 84 | 1016.2 |
| 20260903054527 | 25 | 62 | 4.8 | 9.7 | 0.00 | 0.00 | 0.00 | 84 | 1016.2 |
| 20260903054014 | 25 | 80 | 1.6 | 6.4 | 0.00 | 0.00 | 0.00 | 84 | 1016.3 |
| 20260903053516 | 25 | 144 | 1.6 | 6.4 | 0.00 | 0.00 | 0.00 | 84 | 1016.3 |
| 20260903053028 | 25 | 76 | 0.0 | 11.3 | 0.00 | 0.00 | 0.00 | 83 | 1016.2 |
| 20260903052515 | 25 | 83 | 4.8 | 11.3 | 0.00 | 0.00 | 0.00 | 83 | 1016.2 |
| 20260903052017 | 25 | 100 | 1.6 | 14.5 | 0.00 | 0.00 | 0.00 | 83 | 1016.2 |
| 20260903051533 | 25 | 77 | 3.2 | 14.5 | 0.00 | 0.00 | 0.00 | 83 | 1016.2 |
| 20260903051017 | 25 | 59 | 3.2 | 9.7 | 0.00 | 0.00 | 0.00 | 83 | 1016.1 |
| 20260903050516 | 25 | 39 | 3.2 | 9.7 | 0.00 | 0.00 | 0.00 | 83 | 1016.0 |
| 20260903050033 | 25 | 54 | 1.6 | 6.4 | 0.00 | 0.00 | 0.00 | 83 | 1016.0 |
| 20260903045508 | 25 | 78 | 1.6 | 6.4 | 0.00 | 0.00 | 0.00 | 83 | 1016.0 |
| 20260903045007 | 25 | 53 | 0.0 | 8.0 | 0.00 | 0.00 | 0.00 | 83 | 1015.9 |
| 20260903044526 | 25 | 92 | 3.2 | 8.0 | 0.00 | 0.00 | 0.00 | 83 | 1015.8 |
| 20260903044014 | 25 | 28 | 1.6 | 9.7 | 0.00 | 0.00 | 0.00 | 83 | 1015.7 |
| 20260903043512 | 25 | 64 | 3.2 | 11.3 | 0.00 | 0.00 | 0.00 | 83 | 1015.7 |
| 20260903043031 | 25 | 42 | 4.8 | 11.3 | 0.00 | 0.00 | 0.00 | 83 | 1015.6 |
| 20260903042504 | 25 | 50 | 3.2 | 12.9 | 0.00 | 0.00 | 0.00 | 83 | 1015.5 |
| 20260903042002 | 25 | 42 | 4.8 | 12.9 | 0.00 | 0.00 | 0.00 | 83 | 1015.5 |
| 20260903041511 | 25 | 57 | 6.4 | 12.9 | 0.00 | 0.00 | 0.00 | 83 | 1015.5 |
| 20260903041003 | 25 | 57 | 4.8 | 11.3 | 0.00 | 0.00 | 0.00 | 83 | 1015.6 |
| 20260903040506 | 25 | 42 | 4.8 | 12.9 | 0.00 | 0.00 | 0.00 | 83 | 1015.5 |
| 20260903040016 | 25 | 60 | 4.8 | 12.9 | 0.00 | 0.00 | 0.00 | 83 | 1015.5 |
| 20260903035503 | 25 | 44 | 4.8 | 12.9 | 0.00 | 0.00 | 0.00 | 83 | 1015.4 |
| 20260903035006 | 26 | 35 | 6.4 | 12.9 | 0.00 | 0.00 | 0.00 | 83 | 1015.3 |
| 20260903034523 | 26 | 76 | 4.8 | 11.3 | 0.00 | 0.00 | 0.00 | 83 | 1015.3 |
| 20260903034012 | 26 | 38 | 4.8 | 11.3 | 0.00 | 0.00 | 0.00 | 83 | 1015.3 |
| 20260903033503 | 26 | 33 | 3.2 | 11.3 | 0.00 | 0.00 | 0.00 | 83 | 1015.3 |
| 20260903033013 | 26 | 72 | 3.2 | 11.3 | 0.00 | 0.00 | 0.00 | 83 | 1015.4 |
| 20260903032508 | 26 | 56 | 4.8 | 8.0 | 0.00 | 0.00 | 0.00 | 84 | 1015.5 |
| 20260903032016 | 26 | 32 | 3.2 | 8.0 | 0.00 | 0.00 | 0.00 | 84 | 1015.7 |
| 20260903031521 | 26 | 49 | 3.2 | 8.0 | 0.00 | 0.00 | 0.00 | 84 | 1015.8 |
| 20260903031004 | 26 | 52 | 3.2 | 8.0 | 0.00 | 0.00 | 0.00 | 84 | 1015.9 |
| 20260903030503 | 26 | 42 | 3.2 | 6.4 | 0.00 | 0.00 | 0.00 | 84 | 1016.0 |
| 20260903030009 | 26 | 57 | 3.2 | 6.4 | 0.00 | 0.00 | 0.00 | 84 | 1016.1 |
| 20260903025507 | 26 | 44 | 1.6 | 8.0 | 0.00 | 0.00 | 0.00 | 84 | 1016.2 |
| 20260903025006 | 26 | 42 | 1.6 | 8.0 | 0.00 | 0.00 | 0.00 | 84 | 1016.2 |
| 20260903024513 | 26 | 31 | 4.8 | 9.7 | 0.00 | 0.00 | 0.00 | 84 | 1016.2 |
| 20260903024004 | 26 | 53 | 4.8 | 9.7 | 0.00 | 0.00 | 0.00 | 84 | 1016.2 |
| 20260903023509 | 26 | 61 | 4.8 | 11.3 | 0.00 | 0.00 | 0.00 | 84 | 1016.2 |
| 20260903023028 | 26 | 37 | 4.8 | 14.5 | 0.00 | 0.00 | 0.00 | 84 | 1016.2 |
| 20260903022511 | 26 | 61 | 6.4 | 14.5 | 0.00 | 0.00 | 0.00 | 84 | 1016.1 |
| 20260903022015 | 26 | 51 | 6.4 | 12.9 | 0.00 | 0.00 | 0.00 | 84 | 1016.1 |
| 20260903021537 | 26 | 61 | 6.4 | 14.5 | 0.00 | 0.00 | 0.00 | 84 | 1016.2 |
| 20260903021018 | 26 | 52 | 4.8 | 14.5 | 0.00 | 0.00 | 0.00 | 84 | 1016.1 |
| 20260903020510 | 26 | 61 | 4.8 | 12.9 | 0.00 | 0.00 | 0.00 | 84 | 1016.2 |
| 20260903020006 | 26 | 72 | 6.4 | 11.3 | 0.00 | 0.00 | 0.00 | 84 | 1016.1 |
| 20260903015506 | 26 | 46 | 6.4 | 11.3 | 0.00 | 0.00 | 0.00 | 84 | 1016.2 |
| 20260903015003 | 26 | 63 | 4.8 | 12.9 | 0.00 | 0.00 | 0.00 | 83 | 1016.3 |
| 20260903014514 | 27 | 61 | 4.8 | 12.9 | 0.00 | 0.00 | 0.00 | 83 | 1016.2 |
| 20260903014008 | 27 | 77 | 4.8 | 12.9 | 0.00 | 0.00 | 0.00 | 82 | 1016.3 |
| 20260903013508 | 27 | 59 | 4.8 | 11.3 | 0.00 | 0.00 | 0.00 | 82 | 1016.3 |
| 20260903013013 | 27 | 74 | 4.8 | 11.3 | 0.00 | 0.00 | 0.00 | 82 | 1016.4 |
| 20260903012508 | 27 | 38 | 4.8 | 11.3 | 0.00 | 0.00 | 0.00 | 81 | 1016.4 |
| 20260903012013 | 27 | 53 | 4.8 | 9.7 | 0.00 | 0.00 | 0.00 | 81 | 1016.4 |
| 20260903011527 | 27 | 56 | 4.8 | 11.3 | 0.00 | 0.00 | 0.00 | 80 | 1016.3 |
| 20260903011006 | 27 | 55 | 4.8 | 11.3 | 0.00 | 0.00 | 0.00 | 80 | 1016.4 |
| 20260903010509 | 27 | 38 | 4.8 | 8.0 | 0.00 | 0.00 | 0.00 | 79 | 1016.4 |
| 20260903010033 | 27 | 63 | 3.2 | 9.7 | 0.00 | 0.00 | 0.00 | 79 | 1016.4 |
| 20260903005514 | 27 | 66 | 4.8 | 9.7 | 0.00 | 0.00 | 0.00 | 79 | 1016.2 |
| 20260903005007 | 27 | 360 | 4.8 | 8.0 | 0.00 | 0.00 | 0.00 | 78 | 1016.1 |
| 20260903004530 | 28 | 61 | 4.8 | 8.0 | 0.00 | 0.00 | 0.00 | 78 | 1016.1 |
| 20260903004003 | 28 | 66 | 4.8 | 8.0 | 0.00 | 0.00 | 0.00 | 77 | 1016.1 |
| 20260903003503 | 28 | 48 | 4.8 | 9.7 | 0.00 | 0.00 | 0.00 | 77 | 1016.0 |
| 20260903003018 | 28 | 51 | 3.2 | 9.7 | 0.00 | 0.00 | 0.00 | 76 | 1015.9 |
| 20260903002508 | 28 | 59 | 4.8 | 9.7 | 0.00 | 0.00 | 0.00 | 76 | 1015.8 |
| 20260903002008 | 28 | 53 | 4.8 | 9.7 | 0.00 | 0.00 | 0.00 | 75 | 1015.7 |
| 20260903001514 | 29 | 59 | 3.2 | 9.7 | 0.00 | 0.00 | 0.00 | 74 | 1015.6 |
| 20260903001009 | 29 | 59 | 4.8 | 9.7 | 0.00 | 0.00 | 0.00 | 74 | 1015.7 |
| 20260903000514 | 29 | 94 | 6.4 | 9.7 | 0.00 | 0.00 | 0.00 | 73 | 1015.6 |
| 20260903000030 | 30 | 50 | 6.4 | 11.3 | 0.00 | 0.00 | 0.00 | 73 | 1015.6 |
| 20260902235509 | 30 | 80 | 6.4 | 11.3 | 0.00 | 0.00 | 0.00 | 72 | 1015.7 |
| 20260902235014 | 30 | 43 | 4.8 | 9.7 | 0.00 | 0.00 | 0.00 | 72 | 1015.7 |
| 20260902234532 | 30 | 45 | 4.8 | 8.0 | 0.00 | 0.00 | 0.00 | 71 | 1015.8 |
| 20260902234007 | 30 | 59 | 4.8 | 8.0 | 0.00 | 0.00 | 0.00 | 71 | 1015.8 |
| 20260902233511 | 31 | 69 | 3.2 | 8.0 | 0.00 | 0.00 | 0.00 | 71 | 1015.8 |
| 20260902233031 | 31 | 36 | 3.2 | 6.4 | 0.00 | 0.00 | 0.00 | 70 | 1015.8 |
| 20260902232510 | 31 | 65 | 3.2 | 8.0 | 0.00 | 0.00 | 0.00 | 70 | 1015.8 |
| 20260902232012 | 31 | 46 | 3.2 | 9.7 | 0.00 | 0.00 | 0.00 | 69 | 1015.7 |
| 20260902231516 | 31 | 46 | 4.8 | 9.7 | 0.00 | 0.00 | 0.00 | 68 | 1015.8 |
| 20260902231009 | 31 | 33 | 3.2 | 11.3 | 0.00 | 0.00 | 0.00 | 68 | 1015.9 |
| 20260902230510 | 31 | 63 | 3.2 | 14.5 | 0.00 | 0.00 | 0.00 | 68 | 1015.9 |
| 20260902230024 | 32 | 67 | 4.8 | 14.5 | 0.00 | 0.00 | 0.00 | 67 | 1015.9 |
| 20260902225518 | 32 | 51 | 4.8 | 11.3 | 0.00 | 0.00 | 0.00 | 66 | 1016.0 |
| 20260902225012 | 32 | 30 | 4.8 | 9.7 | 0.00 | 0.00 | 0.00 | 67 | 1015.9 |